Location: Waco, TX
(31.5480°N, 97.1670°W)
Time: 18:46:28
(UTC-06:00)

ISS - Pass Details

Date: 17 January 2019
Orbit: 404 x 410 km, 51.6° (Epoch: 24 January)

Event Time Altitude Azimuth Distance (km) Brightness Sun altitude
Rises 21:12:57 0° 252° (WSW) 2,322 - -42.9°
Reaches altitude 10° 21:15:18 10° 267° (W) 1,466 - -43.4°
Maximum altitude 21:18:00 23° 322° (NW) 920 - -44.0°
Drops below altitude 10° 21:20:43 10° 17° (NNE) 1,474 - -44.6°
Sets 21:23:06 0° 33° (NNE) 2,338 - -45.1°
